Estación Meteorológica Peña el Pijo (Robertgarden) [ 09/30/20 10:13:39 CEST ]

Fecha Hora Presion(HPa) Temp (°C) Humedad % Rocio (°C) Viento ( m/s) Direccion Lluvia 1Hora(mm) Lluvia 24H(mm) LLuvia Total(mm)
2020-Apr-14 01:09:15 1001.700 - - - - W     39.88
2020-Apr-14 02:09:31 1001.700 - - - - W     39.88
2020-Apr-14 03:09:25 1001.300 - - - - W     39.88
2020-Apr-14 04:09:22 1001.300 - - - - W     39.88
2020-Apr-14 05:08:50 1001.200 - - - - W     39.88
2020-Apr-14 06:09:10 1001.300 - - - - W     39.88
2020-Apr-14 07:10:10 1001.300 - - - - W     39.88
2020-Apr-14 08:09:44 1001.700 - - - - W     39.88
2020-Apr-14 09:09:24 1002.300 - - - - W     39.88
2020-Apr-14 10:09:21 1002.300 - - - - W     39.88
2020-Apr-14 11:09:47 1002.600 - - - - W     39.88
2020-Apr-14 12:09:17 1002.600 - - - - W     39.88
2020-Apr-14 13:09:37 1002.600 - - - - W     39.88
2020-Apr-14 14:09:17 1001.900 - - - - W     39.88
2020-Apr-14 15:08:57 1001.800 - - - - W     39.88
2020-Apr-14 16:09:21 1001.400 - - - - W     39.88
2020-Apr-14 17:09:05 1001.500 - - - - W     39.88
2020-Apr-14 18:09:33 1001.200 - - - - W     39.88
2020-Apr-14 19:09:04 1001.500 - - - - W     39.88
2020-Apr-14 20:08:43 1001.800 - - - - W     39.88
2020-Apr-14 21:09:25 1002.300 - - - - W     39.88
2020-Apr-14 22:09:39 1003.100 - - - - W     39.88
2020-Apr-14 23:09:13 1003.500 - - - - W     39.88

Temperatura Máxima:    Temperatura Mínima:
Presión Máxima:1003.500 Hpa    Presión Mínima:1001.200 Hpa


Volver